sat.trackr.live / text

‹ back to catalog

STARLINK-2547

NORAD 48286 · 2021-036L

PAYLOAD ACTIVE UNKNOWN

§ Identity

Operator
Country
US
Launch date
2021-04-29
Launch site
AFETR
Launch vehicle
Mass (kg)
RCS (m²)

Purposes: comms

External: N2YO · Heavens-Above · Gunter

§ Orbital elements

Epoch: 2026-05-25T04:40:44.866272Z

Period
94.01 min
Inclination
53.1593°
Eccentricity
0.0001270
Mean motion
15.31700914 rev/d
Perigee alt
469.9 km
Apogee alt
471.6 km
Semi-major
6,848.9 km
B*
-1.3876e-4
RAAN
79.6215°
Arg perigee
90.6901°
Mean anomaly
269.4246°
Rev number
28,012

§ Raw data

STARLINK-25471 48286U 21036L   26145.19496373 -.00004669  00000+0 -13876-3 0  99942 48286  53.1593  79.6215 0001270  90.6901 269.4246 15.31700914280128

JSON: /api/v1/satellites/48286 · /tle

For live sub-satellite position, see the globe view (requires WebGL).

§ Visibility from observer

Set your observer location to see the next 7 days of passes ≥ 10°. The values pass through the URL so the page stays shareable.

No JS? Fill the form by hand. The geolocation button needs JavaScript.